EW1914 Weather Reports


Display with metric or nautical units.
time (UTC)temp
F
wind
direction
speed
MPH
gust
MPH
rain 1hr
in
rain 24hr
in
rain mn
in
humidity
%
barometer
mb
20260508045000 63 0.0 0.0 0.00 0.00 0.00 64 1015.8
20260508044000 63 0.0 0.0 0.00 0.00 0.00 62 1015.8
20260508041001 65 0.0 0.0 0.00 0.00 0.00 59 1015.5
20260508040004 65 0.0 0.0 0.00 0.00 0.00 58 1015.4
20260508034959 66 0.0 0.0 0.00 0.00 0.00 56 1015.3
20260508033959 66 0.0 0.0 0.00 0.00 0.00 56 1015.3
20260508033001 67 0.0 0.0 0.00 0.00 0.00 54 1015.2
20260508032001 67 0.0 0.0 0.00 0.00 0.00 53 1015.0
20260508030958 68 0.0 0.0 0.00 0.00 0.00 53 1014.9
20260508030002 68 0.0 0.0 0.00 0.00 0.00 51 1014.9
20260508025000 68 0.0 0.0 0.00 0.00 0.00 49 1014.8
20260508023959 69 0.0 0.0 0.00 0.00 0.00 48 1014.9
20260508023001 69 0.0 0.0 0.00 0.00 0.00 47 1015.0
20260508020959 70 0.0 0.0 0.00 0.00 0.00 47 1014.9
20260508020000 70 0.0 0.0 0.00 0.00 0.00 44 1015.0
20260508014000 70 0.0 0.0 0.00 0.00 0.00 46 1015.2
20260508013001 70 0.0 0.0 0.00 0.00 0.00 43 1015.2
20260508011959 70 0.0 0.0 0.00 0.00 0.00 46 1015.3
20260508010959 70 0.0 0.0 0.00 0.00 0.00 45 1015.3
20260508005000 71 0.0 0.0 0.00 0.00 0.00 43 1015.5
20260508004000 71 0.0 0.0 0.00 0.00 0.00 46 1015.6
20260508003001 71 0.0 0.0 0.00 0.00 0.00 44 1015.7
20260508000001 71 0.0 0.0 0.00 0.00 0.00 44 1015.9
20260507234959 71 0.0 0.0 0.00 0.00 0.00 45 1015.9
20260507233959 72 0.0 0.0 0.00 0.00 0.00 43 1016.0
20260507233000 72 0.0 0.0 0.00 0.00 0.00 45 1016.1
20260507231958 72 0.0 0.0 0.00 0.00 0.00 46 1016.3
20260507230959 72 0.0 0.0 0.00 0.00 0.00 46 1016.3
20260507223959 72 0.0 0.0 0.00 0.00 0.00 46 1016.8
20260507223001 72 0.0 0.0 0.00 0.00 0.00 48 1016.8
20260507222000 72 0.0 0.0 0.00 0.00 0.00 46 1017.0
20260507220959 71 0.0 0.0 0.00 0.00 0.00 45 1017.1
20260507220000 70 0.0 0.0 0.00 0.00 0.00 48 1017.2
20260507215000 69 0.0 0.0 0.00 0.00 0.00 48 1017.3
20260507213959 68 0.0 0.0 0.00 0.00 0.00 51 1017.4
20260507213000 68 0.0 0.0 0.00 0.00 0.00 51 1017.6
20260507211959 68 0.0 0.0 0.00 0.00 0.00 53 1017.6
20260507210958 67 0.0 0.0 0.00 0.00 0.00 52 1017.8
20260507210005 66 0.0 0.0 0.00 0.00 0.00 50 1018.0
20260507203959 66 0.0 0.0 0.00 0.00 0.00 54 1018.2
20260507203000 65 0.0 0.0 0.00 0.00 0.00 52 1018.4
20260507202000 65 0.0 0.0 0.00 0.00 0.00 54 1018.5
20260507200958 64 0.0 0.0 0.00 0.00 0.00 55 1018.6
20260507200000 64 0.0 0.0 0.00 0.00 0.00 58 1018.7
20260507194958 63 0.0 0.0 0.00 0.00 0.00 59 1018.8
20260507193958 63 0.0 0.0 0.00 0.00 0.00 57 1018.9
20260507193000 62 0.0 0.0 0.00 0.00 0.00 60 1019.0
20260507191957 62 0.0 0.0 0.00 0.00 0.00 62 1019.2
20260507190958 62 0.0 0.0 0.00 0.00 0.00 61 1019.3
20260507190000 61 0.0 0.0 0.00 0.00 0.00 64 1019.4
20260507184958 60 0.0 0.0 0.00 0.00 0.00 66 1019.5
20260507183958 60 0.0 0.0 0.00 0.00 0.00 68 1019.6
20260507183000 60 0.0 0.0 0.00 0.00 0.00 64 1019.7
20260507181957 59 0.0 0.0 0.00 0.00 0.00 68 1019.8
20260507180957 59 0.0 0.0 0.00 0.00 0.00 67 1019.9
20260507175959 59 0.0 0.0 0.00 0.00 0.00 68 1019.9
20260507174958 58 0.0 0.0 0.00 0.00 0.00 69 1020.0
20260507173958 58 0.0 0.0 0.00 0.00 0.00 70 1020.1
20260507171958 57 0.0 0.0 0.00 0.00 0.00 71 1020.3
20260507170959 57 0.0 0.0 0.00 0.00 0.00 71 1020.2
20260507164958 56 0.0 0.0 0.00 0.00 0.00 73 1020.3
20260507163958 55 0.0 0.0 0.00 0.00 0.00 73 1020.5
20260507163000 55 0.0 0.0 0.00 0.00 0.00 74 1020.4
20260507160958 54 0.0 0.0 0.00 0.00 0.00 75 1020.4
20260507160001 54 0.0 0.0 0.00 0.00 0.00 76 1020.4
20260507154959 54 0.0 0.0 0.00 0.00 0.00 76 1020.5
20260507153958 54 0.0 0.0 0.00 0.00 0.00 76 1020.5
20260507152959 54 0.0 0.0 0.00 0.00 0.00 76 1020.5
20260507151957 54 0.0 0.0 0.00 0.00 0.00 76 1020.5
20260507150958 54 0.0 0.0 0.00 0.00 0.00 77 1020.5
20260507145959 53 0.0 0.0 0.00 0.00 0.00 77 1020.5
20260507144959 53 0.0 0.0 0.00 0.00 0.00 77 1020.4
20260507143958 53 0.0 0.0 0.00 0.00 0.00 78 1020.4
20260507143000 53 0.0 0.0 0.00 0.00 0.00 78 1020.3
20260507141958 53 0.0 0.0 0.00 0.00 0.00 79 1020.3
20260507140002 53 0.0 0.0 0.00 0.00 0.00 79 1020.2
20260507134959 53 0.0 0.0 0.00 0.00 0.00 79 1020.1
20260507133959 53 0.0 0.0 0.00 0.00 0.00 79 1020.0
20260507125959 53 0.0 0.0 0.00 0.00 0.00 79 1019.9
20260507124957 53 0.0 0.0 0.00 0.00 0.00 78 1020.0
20260507122959 54 0.0 0.0 0.00 0.00 0.00 78 1020.0
20260507121958 54 0.0 0.0 0.00 0.00 0.00 78 1020.0
20260507120958 54 0.0 0.0 0.00 0.00 0.00 78 1020.1
20260507115959 54 0.0 0.0 0.00 0.00 0.00 78 1020.1
20260507114957 54 0.0 0.0 0.00 0.00 0.00 78 1020.2
20260507113957 54 0.0 0.0 0.00 0.00 0.00 79 1020.2
20260507112959 54 0.0 0.0 0.00 0.00 0.00 79 1020.2
20260507110957 54 0.0 0.0 0.00 0.00 0.00 78 1020.2
20260507105958 54 0.0 0.0 0.00 0.00 0.00 78 1020.2
20260507104958 55 0.0 0.0 0.00 0.00 0.00 78 1020.3
20260507102959 55 0.0 0.0 0.00 0.00 0.00 78 1020.4
20260507101958 55 0.0 0.0 0.00 0.00 0.00 78 1020.4
20260507100958 55 0.0 0.0 0.00 0.00 0.00 78 1020.5
20260507095958 55 0.0 0.0 0.00 0.00 0.00 79 1020.5
20260507094957 55 0.0 0.0 0.00 0.00 0.00 78 1020.6
20260507092958 55 0.0 0.0 0.00 0.00 0.00 77 1020.7
20260507090957 55 0.0 0.0 0.00 0.00 0.00 77 1020.9
20260507090001 55 0.0 0.0 0.00 0.00 0.00 77 1020.9
20260507083958 55 0.0 0.0 0.00 0.00 0.00 77 1020.9
20260507081958 55 0.0 0.0 0.00 0.00 0.00 77 1020.9
20260507080957 55 0.0 0.0 0.00 0.00 0.00 77 1020.9
20260507080001 56 0.0 0.0 0.00 0.00 0.00 78 1020.8
20260507074000 56 0.0 0.0 0.00 0.00 0.00 79 1020.9
20260507073012 56 0.0 0.0 0.00 0.00 0.00 79 1020.8
20260507071959 56 0.0 0.0 0.00 0.00 0.00 79 1020.7
20260507070958 56 0.0 0.0 0.00 0.00 0.00 79 1020.7
20260507070002 56 0.0 0.0 0.00 0.00 0.00 79 1020.7
20260507064000 56 0.0 0.0 0.00 0.00 0.00 79 1020.7
20260507063000 56 0.0 0.0 0.00 0.00 0.00 78 1020.7
20260507061959 56 0.0 0.0 0.00 0.00 0.00 78 1020.8
20260507060001 56 0.0 0.0 0.00 0.00 0.00 79 1020.8
20260507055000 57 0.0 0.0 0.00 0.00 0.00 79 1020.9
20260507053959 57 0.0 0.0 0.00 0.00 0.00 80 1020.8
20260507053003 57 0.0 0.0 0.00 0.00 0.00 79 1020.8
20260507051000 57 0.0 0.0 0.00 0.00 0.00 78 1020.8